Location: Albuquerque Fire Department Training Academy
(35.0656°N, 106.7592°W)
Time: 01:54:30
(UTC+00:00)

Daily predictions for brighter satellites

Satellite Brightness Start Highest point End
(mag) Time Altitude Azimuth Time Altitude Azimuth Time Altitude Azimuth
Cosmos 2228 3.0 00:50:20 10° S 00:54:42 75° E 00:59:04 10° N
NOAA 12 4.1 00:52:04 10° SSE 00:57:16 68° ENE 01:02:32 10° N
Cosmos 1271 Rocket 2.9 00:54:06 10° N 00:58:01 54° E 01:01:55 10° SSE
Meteor 1-21 Rocket 4.3 00:56:04 10° N 01:01:56 81° E 01:07:40 10° S
Cosmos 968 Rocket 3.5 00:57:17 10° NNW 01:02:34 77° ENE 01:07:47 10° SSE
SMAP 4.0 00:58:21 10° S 01:02:54 55° W 01:07:28 10° NNW
Cosmos 921 Rocket 3.2 01:00:03 10° SSW 01:04:33 83° WNW 01:09:04 10° NNE
Cosmos 1354 Rocket 4.0 00:59:36 10° NNW 01:04:50 70° ENE 01:10:02 10° SSE
H-2A R/B 3.5 01:01:28 10° S 01:05:16 59° W 01:09:08 10° NNW
Cosmos 2058 Rocket 3.1 01:02:04 10° S 01:06:20 58° E 01:10:36 10° NNE
CSL-04 Rocket 4.2 01:01:53 10° SE 01:06:56 38° ENE 01:11:58 10° N
Abrixas rocket 2.3 01:04:00 10° WSW 01:07:01 65° NW 01:10:05 10° NE
Ariane Rocket 4.4 01:06:01 10° ESE 01:09:18 17° ENE 01:12:35 10° NNE
CZ-3 Stage 3 2.4 01:02:09 10° WSW 01:09:49 42° S 01:12:18 12° ESE
SL-4 R/B 2.0 01:06:30 10° NW 01:10:15 51° NE 01:13:42 10° ESE
Okean-O 3.0 01:06:51 10° S 01:11:15 69° WSW 01:15:40 10° NNW
Cosmos 2285 Rocket 4.1 01:08:40 10° NNW 01:15:08 87° WSW 01:21:31 10° SSE
CENTAUR R/B 4.1 01:17:38 10° ESE 01:18:09 10° ESE 01:18:09 10° ESE
Cosmos 1703 3.7 01:17:23 10° N 01:21:05 38° E 01:24:43 10° SSE
YAOGAN 6 2.6 01:18:47 10° SSE 01:22:24 58° ENE 01:26:00 10° N
USA 116 3.2 01:23:48 10° NNE 01:27:01 75° ESE 01:30:30 10° S
COSMO-SKYMED 1 3.1 01:24:46 10° N 01:29:04 61° WNW 01:33:19 10° SSW
OAO 3 Rocket 3.2 01:24:19 10° W 01:29:16 89° N 01:32:38 21° E
Cosmos 1833 Rocket 3.9 01:25:11 10° N 01:29:29 22° ENE 01:31:19 19° E
USA 238 DEB 3.8 01:24:24 10° S 01:30:45 50° ESE 01:37:18 10° NE
USA 238 3.8 01:24:31 10° S 01:30:52 50° ESE 01:37:23 10° NE
Cosmos 1777 Rocket 4.5 01:29:46 10° N 01:34:35 37° ENE 01:38:44 13° SE
Cosmos 1339 Rocket 4.3 01:35:33 10° S 01:41:35 76° E 01:47:41 10° N
USA 234 4.3 01:43:21 21° ESE 01:44:47 23° ESE 01:49:42 10° S
Cosmos 1908 3.5 01:42:48 10° SSW 01:46:41 70° W 01:50:35 10° N
H-2A R/B 4.2 01:49:25 10° NE 01:49:25 10° NE 01:49:28 10° NE
CSL-04 Debris 4.2 01:44:47 10° SSE 01:50:12 86° WSW 01:55:43 10° NNW
Cosmos 2082 Rocket 3.3 01:47:45 10° N 01:52:10 23° ENE 01:52:10 23° ENE
CZ-4C R/B 4.3 01:47:02 10° NW 01:54:12 43° WSW 02:01:56 10° S
NOSS 3-2 (A) 3.2 01:50:57 10° SSW 01:56:26 62° ESE 02:01:16 16° NE
Cosmos 1939 Rocket 2.8 01:54:30 25° SE 01:56:34 56° ENE 02:00:30 10° N
COSMOS 2406 3.1 01:52:12 10° NNW 01:57:59 85° ENE 02:03:43 10° SSE
Lacrosse 5 rocket 2.2 01:56:22 10° NW 02:00:05 46° SW 02:03:00 16° SSE
Cosmos 1605 Rocket 3.9 01:54:52 10° N 02:01:04 88° E 02:07:10 10° S
Cosmos 1727 Rocket 3.8 01:57:18 10° S 02:03:27 78° E 02:09:38 10° N
Shenzhou-11 Module 4.2 02:03:03 10° NW 02:04:15 16° NNW 02:04:15 16° NNW
Cosmos 1812 Rocket 3.4 02:01:18 10° S 02:05:40 77° E 02:10:06 10° N
BREEZE-M DEB (TANK) 4.4 02:03:16 10° W 02:07:08 23° NW 02:08:21 18° N
OAO 2 Rocket 3.4 02:02:13 10° W 02:07:30 74° SSW 02:09:09 44° ESE
YAOGAN 1 3.9 02:10:58 10° SSW 02:15:00 39° W 02:19:05 10° NNW
Delta 2 Rocket 3.8 02:12:58 10° WSW 02:15:25 40° SW 02:15:25 40° SW
MOS 1 4.3 02:18:16 51° E 02:18:57 54° ENE 02:24:26 10° N
NOSS 3-2 (C) 3.2 02:14:13 10° SSW 02:19:41 58° ESE 02:20:38 52° ENE
CZ-4 R/B 3.8 02:16:53 10° SSW 02:20:16 24° W 02:23:42 10° NW
BREEZE M DEB (TANK) 3.3 02:17:16 10° NW 02:20:25 47° NE 02:20:31 47° NE
Cosmos 2173 Rocket 4.3 02:15:25 10° N 02:20:40 43° ENE 02:20:40 43° ENE
IRS-1A Rocket 4.1 02:19:11 27° SSE 02:22:20 77° ENE 02:27:50 10° N
OAO 3 Copernicus 4.2 02:18:25 10° WSW 02:23:28 71° SSE 02:23:45 69° SE
Cosmos 2297 3.7 02:21:09 10° S 02:26:08 56° SE 02:26:08 56° SE
Cosmos 2278 Rocket 3.5 02:22:08 10° SW 02:27:24 39° WNW 02:32:42 10° N
Cosmos 44 4.2 02:27:35 10° SSW 02:30:49 38° S 02:30:49 38° S
SL-24 R/B 4.5 02:28:05 10° NNE 02:33:52 90° SW 02:38:40 10° SSW
Cosmos 1000 Rocket 4.3 02:28:56 10° S 02:35:03 73° E 02:41:15 10° N
IUS-18 SRM-1 4.3 02:32:57 10° WSW 02:35:42 20° SSW 02:35:42 20° SSW
Cosmos 2100 Rocket 3.8 02:36:35 10° N 02:42:28 73° NE 02:42:28 73° NE
ADEOS Rocket 3.3 02:39:58 10° NNE 02:47:37 71° ESE 02:54:36 10° S
Ariane Rocket 3.8 02:44:06 17° S 02:47:49 48° W 02:52:45 10° NNW
Lacrosse 5 3.7 02:46:41 10° NNW 02:48:50 22° N 02:48:50 22° N
H-2A R/B 4.1 01:44:49 10° WSW 02:56:17 71° S 02:59:41 53° ESE
ATLAS 3B R/B 2.9 02:49:52 10° SSW 02:55:02 54° S 02:55:02 54° S
BREEZE-M DEB (TANK) 4.4 03:01:53 10° SW 03:06:16 84° NW 03:23:40 10° NE
CENTAUR R/B 3.5 03:02:35 10° SSW 03:05:27 33° SSW 03:05:27 33° SSW
Cosmos 1833 Rocket 3.6 03:08:15 10° NW 03:13:04 45° W 03:13:04 45° W
H-2A R/B 4.4 03:30:02 16° NNW 03:30:02 16° NNW 03:31:07 10° NNW
USA 234 4.2 03:30:45 40° SW 03:30:45 40° SW 03:34:39 10° SW
Cosmos 2082 Rocket 3.9 03:31:07 10° NW 03:34:04 28° NW 03:34:04 28° NW
Cosmos 2219 Rocket 4.2 10:10:42 22° NE 10:10:42 22° NE 10:12:42 10° NNE
Cosmos 2237 Rocket 4.1 10:15:09 22° ESE 10:16:24 24° E 10:20:51 10° NE
COSMOS 2428 4.1 10:33:26 30° NNE 10:33:26 30° NNE 10:36:10 10° NNE
ATLAS 2AS CENTAUR R/B 2.9 10:46:56 69° SW 10:48:07 88° WNW 10:56:15 10° NNE
USA 238 DEB 4.1 10:53:06 22° NNW 10:58:01 69° ENE 11:05:26 10° SE
USA 238 4.1 10:53:09 22° NNW 10:58:07 69° ENE 11:05:31 10° SE
CZ-2C R/B 3.8 10:56:12 10° NNE 11:01:02 39° E 11:05:48 10° SSE
ADEOS 4.0 11:00:22 10° N 11:04:13 49° N 11:04:13 49° N
USA 32 4.3 11:02:39 10° S 11:07:49 66° E 11:13:01 10° N
SL-16 R/B 4.4 11:04:36 10° SSE 11:09:02 24° ESE 11:13:29 10° NE
Cosmos 921 Rocket 3.8 11:11:02 19° N 11:13:47 48° ENE 11:17:51 10° SSE
CZ-4B R/B 4.3 11:13:45 10° NNE 11:17:25 36° E 11:20:54 10° SSE
NOSS 3-2 (A) 4.1 11:15:39 10° NNW 11:23:31 86° ENE 11:32:05 10° SSE
Cosmos 2333 Rocket 3.4 11:25:34 26° NNW 11:25:34 26° NNW 11:28:52 10° N
NOSS 0 Rocket 3.8 11:22:50 48° SW 11:24:27 65° WNW 11:30:37 10° NNE
Cosmos 2278 Rocket 2.8 11:19:13 10° NNW 11:24:48 55° ENE 11:30:20 10° SE
Cosmos 1953 4.2 11:23:59 10° NNE 11:27:35 31° ENE 11:31:10 10° SE
Cosmos 1140 Rocket 3.5 11:30:09 10° S 11:35:20 78° ESE 11:40:31 10° NNE
Cosmos 2074 Rocket 3.9 11:29:20 10° S 11:35:35 75° W 11:41:49 10° N
Cosmos 1758 3.4 11:31:39 10° N 11:35:40 78° E 11:39:41 10° S
Meteor 1-21 4.3 11:34:39 40° WSW 11:36:06 49° WNW 11:41:33 10° N
Cosmos 614 Rocket 3.9 11:37:06 31° SW 11:39:32 62° WNW 11:44:43 10° N
PAYLOAD A 3.9 11:39:58 10° N 11:44:46 59° WNW 11:49:42 10° SSW
NOSS 3-2 (C) 4.2 11:39:09 10° NNW 11:47:01 83° ENE 11:55:36 10° SSE
RESURS DK-1 3.0 11:45:26 10° S 11:49:29 57° ESE 11:53:33 10° NNE
Meteor 1-31 Rocket 2.5 11:46:44 10° N 11:50:32 73° WNW 11:54:18 10° SSW
Cosmos 2181 Rocket 4.4 11:45:07 10° NNW 11:50:52 38° W 11:56:32 10° SSW
Cosmos 2219 Rocket 3.7 11:52:28 17° NW 11:52:28 17° NW 11:55:16 10° NNW
IDEFIX/ARIANE 42P 3.6 11:47:29 10° NNW 11:51:05 25° NW 11:51:05 25° NW
Cosmos 1707 2.7 11:48:30 10° SSW 11:52:20 59° W 11:56:13 10° N
